WI1SKY Weather Reports


Display with metric or nautical units.
time (UTC)temp
F
wind
direction
speed
MPH
gust
MPH
rain 1hr
in
rain 24hr
in
rain mn
in
humidity
%
barometer
mb
20260902125444 65 80 1.0 3.0 0.00 1.39 1.03 95 1012.8
20260902124943 65 80 1.0 4.0 0.01 1.39 1.03 95 1012.7
20260902124441 65 80 2.0 4.0 0.01 1.39 1.03 95 1012.6
20260902123938 65 82 1.0 3.0 0.01 1.39 1.03 95 1012.6
20260902123744 65 82 1.0 4.0 0.01 1.39 1.03 95 1012.6
20260902122935 65 82 1.0 7.0 0.01 1.39 1.03 95 1012.8
20260902122736 65 89 3.0 7.0 0.01 1.39 1.03 95 1012.8
20260902121936 65 67 3.0 7.0 0.01 1.39 1.03 95 1012.3
20260902121436 65 92 3.0 5.0 0.01 1.39 1.03 95 1012.2
20260902120936 65 68 2.0 4.0 0.01 1.39 1.03 95 1012.6
20260902120436 65 70 2.0 4.0 0.01 1.39 1.03 95 1012.0
20260902115940 65 69 2.0 5.0 0.01 1.39 1.03 95 1012.1
20260902115436 65 67 2.0 5.0 0.01 1.39 1.03 95 1012.6
20260902115244 65 95 1.0 3.0 0.00 1.38 1.02 95 1012.8
20260902114436 65 100 1.0 3.0 0.03 1.38 1.02 95 1013.2
20260902113935 65 100 2.0 6.0 0.13 1.38 1.02 95 1013.2
20260902113434 65 100 1.0 6.0 0.13 1.38 1.02 95 1013.3
20260902112933 65 324 0.0 3.0 0.14 1.38 1.02 95 1013.4
20260902112432 65 304 0.0 2.0 0.14 1.38 1.02 95 1014.0
20260902111931 65 304 0.0 2.0 0.14 1.38 1.02 95 1014.2
20260902111430 65 304 0.0 1.0 0.14 1.38 1.02 95 1014.5
20260902110929 65 304 0.0 1.0 0.14 1.38 1.02 95 1014.2
20260902110429 65 304 0.0 0.0 0.14 1.38 1.02 95 1013.8
20260902105930 65 304 0.0 1.0 0.14 1.38 1.02 95 1013.7
20260902105430 65 304 2.0 8.0 0.14 1.38 1.02 95 1014.0
20260902104929 65 15 4.0 10.0 0.14 1.38 1.02 95 1013.2
20260902104429 65 72 3.0 10.0 0.11 1.35 0.98 95 1012.9
20260902104237 65 101 3.0 10.0 0.01 1.25 0.89 95 1013.8
20260902103429 65 101 5.0 10.0 0.01 1.25 0.89 95 1012.4
20260902102929 65 79 5.0 9.0 0.00 1.24 0.88 95 1011.7
20260902102429 66 76 3.0 7.0 0.00 1.24 0.88 95 1012.0
20260902101929 66 98 1.0 6.0 0.00 1.24 0.88 95 1012.5
20260902101731 66 65 0.0 2.0 0.00 1.24 0.88 95 1012.7
20260902100930 66 65 1.0 3.0 0.00 1.24 0.88 95 1012.8
20260902100429 66 65 1.0 3.0 0.00 1.24 0.88 95 1012.9
20260902095930 66 78 1.0 2.0 0.00 1.24 0.88 95 1012.6
20260902095429 66 78 1.0 2.0 0.00 1.24 0.88 95 1012.4
20260902094930 66 78 1.0 3.0 0.00 1.24 0.88 95 1012.6
20260902094429 66 78 1.0 3.0 0.00 1.24 0.88 95 1012.5
20260902094239 67 78 1.0 3.0 0.00 1.24 0.88 95 1012.9
20260902093736 67 78 2.0 7.0 0.00 1.24 0.88 94 1012.5
20260902092930 67 78 1.0 7.0 0.00 1.24 0.88 95 1012.6
20260902092429 67 47 1.0 3.0 0.00 1.24 0.88 95 1012.6
20260902092230 67 102 2.0 3.0 0.00 1.24 0.88 95 1012.8
20260902091429 67 102 2.0 6.0 0.01 1.24 0.88 95 1012.9
20260902091231 67 102 3.0 6.0 0.03 1.24 0.88 95 1012.9
20260902090430 68 102 1.0 4.0 0.10 1.24 0.88 95 1013.0
20260902085930 68 14 0.0 3.0 0.34 1.24 0.88 95 1013.2
20260902085433 68 14 0.0 3.0 0.42 1.24 0.88 95 1013.3
20260902084929 68 14 0.0 3.0 0.42 1.24 0.88 95 1013.4
20260902084429 68 14 0.0 3.0 0.42 1.24 0.88 95 1013.4
20260902083929 68 14 0.0 3.0 0.42 1.24 0.88 95 1013.3
20260902083429 68 327 1.0 3.0 0.42 1.24 0.88 95 1013.3
20260902082929 68 327 2.0 4.0 0.42 1.24 0.88 95 1013.6
20260902082740 68 327 2.0 4.0 0.42 1.24 0.88 95 1014.0
20260902082240 68 327 2.0 4.0 0.42 1.24 0.87 95 1014.5
20260902081429 68 327 3.0 5.0 0.41 1.23 0.86 95 1014.5
20260902081240 69 327 4.0 9.0 0.39 1.21 0.84 94 1014.2
20260902080429 69 328 7.0 15.0 0.32 1.14 0.77 94 1014.5
20260902075929 69 315 7.0 15.0 0.08 0.90 0.51 95 1014.9
20260902075428 69 292 4.0 14.0 0.00 0.82 0.46 95 1015.0
20260902074929 69 296 0.0 6.0 0.00 0.82 0.46 95 1013.3
20260902074429 69 105 0.0 0.0 0.00 0.82 0.46 95 1011.0
20260902074050 69 105 0.0 0.0 0.00 0.82 0.46 95 1011.1
20260902074021 69 105 0.0 0.0 0.00 0.82 0.46 95 1011.1
20260902072929 69 105 0.0 0.0 0.00 0.82 0.46 95 1011.2
20260902072843 69 105 0.0 0.0 0.00 0.82 0.46 95 1011.3
20260902072836 69 105 0.0 0.0 0.00 0.82 0.46 95 1011.3
20260902071429 69 105 0.0 0.0 0.00 0.82 0.46 94 1011.3
20260902070929 69 105 0.0 0.0 0.00 0.82 0.46 95 1011.2
20260902070430 69 105 0.0 0.0 0.00 0.82 0.46 95 1011.0
20260902065932 69 105 0.0 0.0 0.00 0.82 0.46 95 1011.1
20260902065430 69 105 0.0 0.0 0.00 0.82 0.46 94 1011.3
20260902064932 69 105 0.0 0.0 0.00 0.82 0.46 94 1011.3
20260902064429 69 105 0.0 0.0 0.00 0.82 0.46 94 1011.3
20260902063928 69 105 0.0 0.0 0.00 0.82 0.46 94 1011.2
20260902063423 69 105 0.0 0.0 0.00 0.82 0.46 94 1011.2
20260902063042 69 105 2.0 8.0 0.21 0.82 0.46 94 1011.3
20260902063008 69 105 0.0 2.0 0.00 0.82 0.46 94 1011.2
20260902061917 69 105 4.0 8.0 0.46 0.82 0.46 93 1011.2
20260902061537 69 94 1.0 4.0 0.46 0.82 0.46 93 1011.1
20260902061506 69 100 3.0 7.0 0.46 0.82 0.46 93 1011.0
20260902060411 69 101 0.0 4.0 0.46 0.82 0.46 92 1011.3
20260902055909 69 315 0.0 0.0 0.46 0.82 0.46 92 1011.7
20260902055413 70 315 1.0 3.0 0.46 0.82 0.46 92 1012.0
20260902054910 70 315 2.0 4.0 0.47 0.82 0.46 92 1012.0
20260902054409 71 315 2.0 4.0 0.48 0.82 0.46 92 1012.2
20260902053908 71 315 4.0 12.0 0.54 0.82 0.46 92 1012.1
20260902053409 71 171 8.0 24.0 0.62 0.82 0.46 92 1011.3
20260902052907 71 76 7.0 24.0 0.67 0.82 0.45 93 1011.2
20260902052404 70 292 2.0 20.0 0.51 0.59 0.08 93 1013.3
20260902051903 70 340 2.0 4.0 0.34 0.36 0.00 93 1012.7
20260902051520 70 100 1.0 3.0 0.35 0.36 0.00 92 1012.4
20260902051453 70 340 1.0 4.0 0.35 0.36 0.00 92 1012.6
20260902050402 70 100 1.0 4.0 0.35 0.36 0.00 92 1012.6
20260902045901 70 71 2.0 4.0 0.35 0.36 0.36 91 1012.5
20260902045400 71 355 2.0 4.0 0.35 0.36 0.36 91 1012.1
20260902045210 72 355 3.0 5.0 0.34 0.35 0.35 92 1012.1
20260902044401 72 355 3.0 5.0 0.33 0.34 0.34 93 1012.5
20260902043900 72 343 2.0 6.0 0.27 0.28 0.25 93 1013.0
20260902043401 72 355 2.0 6.0 0.19 0.20 0.20 93 1012.5
20260902043209 72 319 2.0 6.0 0.12 0.13 0.09 93 1012.7
20260902042401 72 153 4.0 6.0 0.07 0.08 0.08 92 1012.7
20260902041900 72 163 2.0 6.0 0.01 0.02 0.01 91 1012.2
20260902041401 72 5 0.0 0.0 0.00 0.01 0.01 91 1012.1
20260902040901 72 5 0.0 0.0 0.00 0.01 0.01 90 1011.8
20260902040712 72 5 0.0 0.0 0.00 0.01 0.01 90 1011.8
20260902035902 72 5 0.0 0.0 0.00 0.01 0.01 90 1011.7
20260902035402 72 5 0.0 0.0 0.00 0.01 0.01 90 1011.5
20260902034900 72 5 0.0 0.0 0.00 0.01 0.01 90 1011.7
20260902034402 72 5 0.0 0.0 0.00 0.01 0.01 89 1011.8
20260902033901 72 5 0.0 0.0 0.00 0.01 0.01 89 1011.8
20260902033708 72 5 0.0 1.0 0.00 0.01 0.01 89 1011.7
20260902033207 72 5 1.0 3.0 0.00 0.01 0.01 89 1011.8
20260902032401 72 5 1.0 3.0 0.00 0.01 0.01 89 1011.9
20260902031901 73 5 0.0 2.0 0.00 0.01 0.01 89 1011.9
20260902031400 73 0 1.0 3.0 0.00 0.01 0.01 89 1012.1
20260902030900 73 0 1.0 3.0 0.00 0.01 0.01 89 1012.2
20260902030721 73 57 0.0 2.0 0.00 0.01 0.01 89 1012.1
20260902030215 73 57 0.0 2.0 0.00 0.01 0.01 89 1012.1
20260902025403 73 322 0.0 0.0 0.00 0.01 0.01 89 1012.2
20260902024903 73 321 0.0 0.0 0.00 0.01 0.01 88 1012.3
20260902024402 73 321 0.0 0.0 0.00 0.01 0.01 88 1012.4
20260902023902 73 321 0.0 0.0 0.00 0.01 0.01 88 1012.4
20260902023521 73 321 0.0 0.0 0.00 0.01 0.01 89 1012.3
20260902023446 73 321 0.0 0.0 0.00 0.01 0.01 87 1012.4
20260902022403 73 321 0.0 0.0 0.00 0.01 0.01 89 1012.4
20260902021903 74 321 0.0 0.0 0.00 0.01 0.01 89 1012.3
20260902021402 74 321 0.0 0.0 0.00 0.01 0.01 89 1012.1
20260902020903 74 321 0.0 0.0 0.00 0.01 0.01 89 1012.3
20260902020402 74 321 0.0 0.0 0.00 0.01 0.01 89 1012.5
20260902015906 74 321 0.0 0.0 0.00 0.01 0.01 88 1012.4
20260902015406 74 321 0.0 0.0 0.00 0.01 0.01 88 1012.3
20260902014901 74 321 0.0 0.0 0.00 0.01 0.01 87 1012.2
20260902014517 74 321 0.0 0.0 0.00 0.01 0.01 87 1012.0
20260902014448 74 321 0.0 0.0 0.00 0.01 0.01 87 1012.1
20260902013401 74 321 0.0 0.0 0.00 0.01 0.01 87 1011.9
20260902012901 74 321 0.0 0.0 0.00 0.01 0.01 87 1011.9
20260902012400 74 321 0.0 0.0 0.01 0.01 0.01 86 1011.8
20260902012157 74 321 0.0 0.0 0.01 0.01 0.01 86 1011.8
20260902011401 75 321 0.0 0.0 0.01 0.01 0.01 85 1011.8
20260902010901 75 321 0.0 0.0 0.01 0.01 0.01 85 1011.7
20260902010401 74 321 0.0 0.0 0.01 0.01 0.01 83 1011.6
20260902010210 74 321 0.0 1.0 0.01 0.01 0.01 82 1011.5
20260902005403 75 321 0.0 2.0 0.01 0.01 0.01 83 1011.5
20260902004909 75 321 1.0 2.0 0.01 0.01 0.01 82 1011.3
20260902004405 75 321 2.0 3.0 0.01 0.01 0.01 82 1011.3
20260902003902 75 321 2.0 3.0 0.01 0.01 0.01 81 1011.3
20260902003401 76 321 2.0 4.0 0.01 0.01 0.01 80 1011.3
20260902003213 76 321 1.0 4.0 0.01 0.01 0.01 79 1011.4
20260902002401 76 276 0.0 3.0 0.00 0.00 0.00 79 1011.1
20260902001902 76 192 0.0 0.0 0.00 0.00 0.00 79 1011.0
20260902001402 76 192 0.0 0.0 0.00 0.00 0.00 78 1010.9
20260902000903 76 192 0.0 0.0 0.00 0.00 0.00 75 1010.9
20260902000401 76 192 0.0 0.0 0.00 0.00 0.00 76 1010.9
20260901235902 77 192 0.0 0.0 0.00 0.00 0.00 75 1010.9
20260901235401 77 192 0.0 1.0 0.00 0.00 0.00 74 1010.9
20260901235206 78 263 1.0 2.0 0.00 0.00 0.00 68 1010.9
20260901234400 78 263 1.0 2.0 0.00 0.00 0.00 69 1010.9
20260901234206 80 261 0.0 2.0 0.00 0.00 0.00 66 1011.3
20260901233401 81 261 1.0 2.0 0.00 0.00 0.00 63 1011.8
20260901232902 81 261 2.0 4.0 0.00 0.00 0.00 60 1011.9
20260901232401 81 190 3.0 6.0 0.00 0.00 0.00 58 1011.9
20260901231901 81 226 2.0 6.0 0.00 0.00 0.00 66 1012.1
20260901231401 81 188 0.0 4.0 0.00 0.00 0.00 74 1012.3
20260901230900 82 176 0.0 0.0 0.00 0.00 0.00 79 1012.6
20260901230401 82 176 0.0 0.0 0.00 0.00 0.00 77 1012.4
20260901225903 82 176 0.0 0.0 0.00 0.00 0.00 74 1012.1
20260901225402 82 120 0.0 0.0 0.00 0.00 0.00 74 1011.9
20260901224902 82 112 0.0 0.0 0.00 0.00 0.00 75 1011.7
20260901224402 82 112 0.0 0.0 0.00 0.00 0.00 75 1011.3
20260901223902 83 112 0.0 0.0 0.00 0.00 0.00 75 1010.9
20260901223712 83 215 0.0 0.0 0.00 0.00 0.00 76 1010.8
20260901223232 85 215 0.0 0.0 0.00 0.00 0.00 74 1011.7
20260901222903 84 215 0.0 0.0 0.00 0.00 0.00 76 1011.2
20260901222854 85 215 0.0 0.0 0.00 0.00 0.00 76 1011.5
20260901221024 86 215 0.0 0.0 0.00 0.00 0.00 70 1011.4
20260901220952 86 215 0.0 0.0 0.00 0.00 0.00 72 1011.7
20260901215902 86 215 0.0 0.0 0.00 0.00 0.00 68 1011.2
20260901215402 86 215 0.0 1.0 0.00 0.00 0.00 67 1010.8
20260901214903 87 215 0.0 1.0 0.00 0.00 0.00 66 1010.9
20260901214401 87 215 0.0 0.0 0.00 0.00 0.00 66 1011.0
20260901213903 87 215 0.0 0.0 0.00 0.00 0.00 65 1011.2
20260901213405 88 215 0.0 0.0 0.00 0.00 0.00 63 1011.3
20260901212903 88 215 0.0 0.0 0.00 0.00 0.00 62 1011.4
20260901212403 88 215 0.0 0.0 0.00 0.00 0.00 59 1011.5
20260901211902 87 215 0.0 0.0 0.00 0.00 0.00 62 1011.5
20260901211520 87 215 0.0 0.0 0.00 0.00 0.00 62 1011.7
20260901211452 87 215 0.0 0.0 0.00 0.00 0.00 64 1011.6
20260901210401 87 215 0.0 0.0 0.00 0.00 0.00 61 1011.7
20260901205900 86 165 0.0 0.0 0.00 0.00 0.00 63 1011.7
20260901205401 86 302 0.0 0.0 0.00 0.00 0.00 63 1011.7
20260901204901 85 302 0.0 0.0 0.00 0.00 0.00 67 1011.7
20260901204710 86 302 0.0 0.0 0.00 0.00 0.00 68 1011.7
20260901203901 86 302 0.0 0.0 0.00 0.00 0.00 69 1011.8
20260901203401 86 302 0.0 0.0 0.00 0.00 0.00 69 1011.9
20260901202902 86 302 0.0 0.0 0.00 0.00 0.00 67 1011.8
20260901202401 87 302 0.0 0.0 0.00 0.00 0.00 68 1011.8
20260901201900 87 302 0.0 0.0 0.00 0.00 0.00 62 1011.8
20260901201402 88 302 0.0 0.0 0.00 0.00 0.00 59 1012.0
20260901200901 88 302 0.0 0.0 0.00 0.00 0.00 56 1012.0
20260901200401 88 302 0.0 0.0 0.00 0.00 0.00 59 1011.9
20260901195901 89 302 0.0 0.0 0.00 0.00 0.00 59 1012.0
20260901195400 89 302 0.0 0.0 0.00 0.00 0.00 60 1012.1
20260901194900 89 302 0.0 0.0 0.00 0.00 0.00 59 1012.4
20260901194400 90 302 0.0 0.0 0.00 0.00 0.00 56 1012.5
20260901193900 90 302 0.0 0.0 0.00 0.00 0.00 59 1012.5
20260901193710 90 302 1.0 3.0 0.00 0.00 0.00 49 1012.4
20260901192901 90 302 1.0 3.0 0.00 0.00 0.00 59 1012.5
20260901192401 90 265 1.0 3.0 0.00 0.00 0.00 57 1012.5
20260901191902 90 265 1.0 3.0 0.00 0.00 0.00 58 1012.4
20260901191401 89 265 1.0 3.0 0.00 0.00 0.00 58 1012.5
20260901191214 89 265 2.0 3.0 0.00 0.00 0.00 62 1012.4
20260901190400 89 265 1.0 3.0 0.00 0.00 0.00 64 1012.4
20260901185900 89 265 0.0 3.0 0.00 0.00 0.00 64 1012.4
20260901185401 88 254 0.0 2.0 0.00 0.00 0.00 63 1012.4
20260901184901 88 254 0.0 2.0 0.00 0.00 0.00 66 1012.4
20260901184401 88 254 1.0 4.0 0.00 0.00 0.00 65 1012.4
20260901183901 88 254 1.0 4.0 0.00 0.00 0.00 67 1012.5
20260901183401 88 241 1.0 3.0 0.00 0.00 0.00 66 1012.4
20260901182900 87 241 1.0 3.0 0.00 0.00 0.00 70 1012.5
20260901182401 87 241 1.0 3.0 0.00 0.00 0.00 71 1012.5
20260901181900 86 241 0.0 3.0 0.00 0.00 0.00 70 1012.5
20260901181401 86 257 0.0 1.0 0.00 0.00 0.00 76 1012.5
20260901180901 85 257 0.0 2.0 0.00 0.00 0.00 77 1012.4
20260901180402 85 182 0.0 2.0 0.00 0.00 0.00 75 1012.5
20260901180211 84 269 0.0 0.0 0.00 0.00 0.00 80 1012.6
20260901175708 84 269 0.0 0.0 0.00 0.00 0.00 80 1012.6
20260901174901 83 240 0.0 0.0 0.00 0.00 0.00 79 1012.7
20260901174400 83 240 0.0 0.0 0.00 0.00 0.00 80 1012.7
20260901173900 82 240 0.0 2.0 0.00 0.00 0.00 81 1012.8
20260901173402 82 240 0.0 2.0 0.00 0.00 0.00 83 1012.8
20260901172903 81 244 0.0 0.0 0.00 0.00 0.00 86 1012.9
20260901172402 81 244 0.0 0.0 0.00 0.00 0.00 88 1012.9
20260901171907 81 244 0.0 0.0 0.00 0.00 0.00 89 1012.9
20260901171402 81 244 0.0 0.0 0.00 0.00 0.00 91 1012.9
20260901171214 80 244 0.0 0.0 0.00 0.00 0.00 92 1012.9
20260901170353 80 244 0.0 0.0 0.00 0.00 0.00 93 1013.0
20260901165846 80 245 0.0 0.0 0.00 0.00 0.00 94 1013.0
20260901165342 79 239 0.0 0.0 0.00 0.00 0.00 94 1013.0
20260901164843 79 239 0.0 0.0 0.00 0.00 0.00 95 1012.9
20260901164340 79 239 0.0 0.0 0.00 0.00 0.00 95 1013.0
20260901163839 78 239 0.0 0.0 0.00 0.00 0.00 95 1013.0
20260901163339 78 239 0.0 2.0 0.00 0.00 0.00 95 1013.1
20260901162839 78 239 1.0 2.0 0.00 0.00 0.00 96 1013.0
20260901162340 77 239 1.0 3.0 0.00 0.00 0.00 96 1013.1
20260901161837 77 239 0.0 3.0 0.00 0.00 0.00 96 1013.1
20260901161337 77 214 0.0 0.0 0.00 0.00 0.00 96 1013.0
20260901160840 77 214 0.0 0.0 0.00 0.00 0.00 96 1012.9
20260901160338 77 214 0.0 0.0 0.00 0.00 0.00 96 1013.0
20260901155835 77 214 0.0 0.0 0.00 0.00 0.00 96 1013.1
20260901155335 77 214 0.0 0.0 0.00 0.00 0.00 96 1013.2
20260901155157 76 214 0.0 0.0 0.00 0.00 0.00 96 1013.1
20260901154332 76 214 0.0 0.0 0.00 0.00 0.00 96 1013.2
20260901153831 76 214 0.0 0.0 0.00 0.00 0.00 96 1013.3
20260901153332 76 214 0.0 0.0 0.00 0.00 0.00 96 1013.2
20260901152830 76 214 0.0 0.0 0.00 0.00 0.00 96 1013.2
20260901152329 75 214 0.0 0.0 0.00 0.00 0.00 96 1013.2
20260901151830 75 214 0.0 0.0 0.00 0.00 0.00 96 1013.1
20260901151331 75 214 0.0 0.0 0.00 0.00 0.00 96 1013.2
20260901150830 75 214 0.0 0.0 0.00 0.00 0.00 96 1013.2
20260901150331 75 214 0.0 0.0 0.00 0.00 0.00 96 1013.2
20260901145828 75 214 0.0 0.0 0.00 0.00 0.00 96 1013.2
20260901145632 75 214 0.0 0.0 0.00 0.00 0.00 96 1013.3
20260901144829 75 214 0.0 0.0 0.00 0.00 0.00 96 1013.3
20260901144633 75 214 0.0 0.0 0.00 0.00 0.00 96 1013.3
20260901143829 74 214 0.0 0.0 0.00 0.00 0.00 96 1013.3
20260901143329 74 214 0.0 0.0 0.00 0.00 0.00 96 1013.3
20260901142828 74 214 0.0 0.0 0.00 0.00 0.00 96 1013.3
20260901142329 74 214 0.0 0.0 0.00 0.00 0.00 96 1013.3
20260901141830 74 214 0.0 0.0 0.00 0.00 0.00 96 1013.2
20260901141633 74 214 0.0 0.0 0.00 0.00 0.00 96 1013.3
20260901140829 74 214 0.0 0.0 0.00 0.00 0.00 96 1013.2
20260901140328 74 214 0.0 0.0 0.00 0.00 0.00 96 1013.2
20260901135833 74 214 0.0 0.0 0.00 0.00 0.00 96 1013.2
20260901135334 74 214 0.0 0.0 0.00 0.00 0.00 96 1013.2
20260901134834 74 214 0.0 0.0 0.00 0.00 0.00 96 1013.3
20260901134329 74 214 0.0 0.0 0.00 0.00 0.00 96 1013.3
20260901133832 73 214 0.0 0.0 0.00 0.00 0.00 96 1013.3
20260901133329 73 214 0.0 0.0 0.00 0.00 0.00 96 1013.4
20260901133250 73 214 0.0 0.0 0.00 0.00 0.00 96 1013.3
20260901133243 73 214 0.0 0.0 0.00 0.00 0.00 96 1013.3
20260901131830 73 214 0.0 0.0 0.00 0.00 0.00 96 1013.3
20260901131334 73 214 0.0 0.0 0.00 0.00 0.00 96 1013.3
20260901130826 73 214 0.0 0.0 0.00 0.00 0.00 96 1013.3
20260901130323 73 214 0.0 0.0 0.00 0.00 0.00 96 1013.3